"2010-02-12 00:00:00",1673559,4.159,142.3,5.445,1.149,4.809,100.4752,0.512,1.771,34.37,0,109.6,13.54,1.27,104.3
"2010-02-12 00:00:30",1673560,2.642,135.1,3.145,0.819,1.557,100.4752,0.512,1.573,34.34,0,109.6,13.54,1.27,97.1
"2010-02-12 00:01:00",1673561,3.222,139,6.214,1.183,2.871,100.4752,0.512,1.597,34.16,0,109.6,13.55,1.27,101.0
"2010-02-12 00:01:30",1673562,3.999,143.2,6.647,1.162,4.939,100.4752,0.512,1.776,34.17,0,109.6,13.55,1.27,105.2
"2010-02-12 00:02:00",1673563,4.498,146.8,4.5,1.01,6.207,100.4752,0.512,1.882,34.13,0,109.5,13.55,1.27,108.8
"2010-02-12 00:02:30",1673564,4.09,146.7,5.834,1.156,5.474,100.4772,0.517,1.833,33.92,0,109.6,13.55,1.27,108.7
"2010-02-12 00:03:00",1673565,3.663,143.5,5.878,1.204,4.21,100.4766,0.516,1.813,33.98,0,109.6,13.55,1.27,105.5
"2010-02-12 00:03:30",1673566,3.334,141.1,8.67,1.075,2.953,100.4803,0.525,1.62,33.8,0,109.6,13.55,1.28,103.1
"2010-02-12 00:04:00",1673567,3.223,137.8,6.087,1.051,3.118,100.4823,0.53,1.686,34.12,0,109.6,13.55,1.28,99.8
"2010-02-12 00:04:30",1673568,3.831,138.3,5.971,1.245,4.526,100.4852,0.538,1.801,34.37,0,109.6,13.55,1.29,100.3
"2010-02-12 00:05:00",1673569,4.514,141.6,5.368,0.995,6.13,100.4874,0.543,1.866,34.55,0,109.6,13.55,1.30,103.6
"2010-02-12 00:05:30",1673570,4.361,139.9,5.744,1.05,5.261,100.4869,0.542,1.846,34.65,0,109.6,13.55,1.30,101.9
"2010-02-12 00:06:00",1673571,3.837,138.8,5.939,1.243,4.476,100.4889,0.547,1.767,34.62,0,109.6,13.54,1.30,100.8
"2010-02-12 00:06:30",1673572,2.481,131.3,0.606,0.037,1.354,100.4903,0.551,1.597,34.45,0,109.6,13.58,1.30,93.3
"2010-02-12 00:07:00",1673573,2.581,132.3,2.869,0.226,1.885,100.4906,0.551,1.69,34.58,0,109.6,13.58,1.31,94.3
"2010-02-12 00:07:30",1673574,4.181,143.4,6.091,1.157,5.344,100.4928,0.557,1.797,34.68,0,109.6,13.55,1.31,105.4
"2010-02-12 00:08:00",1673575,4.118,144.8,5.792,1.059,5.349,100.4934,0.559,1.802,34.61,0,109.6,13.55,1.31,106.8
"2010-02-12 00:08:30",1673576,4.547,146.9,4.312,0.848,5.646,100.4971,0.568,1.879,34.56,0,109.6,13.55,1.32,108.9
"2010-02-12 00:09:00",1673577,3.739,143.5,7.092,1.224,3.926,100.4974,0.569,1.798,34.41,0,109.6,13.54,1.32,105.5
"2010-02-12 00:09:30",1673578,2.326,142,1.178,0.045,1.606,100.4985,0.572,1.629,34.07,0,109.6,13.58,1.33,104.0
"2010-02-12 00:10:00",1673579,3.291,142.1,5.905,1.169,2.525,100.5,0.575,1.613,34.03,0,109.6,13.55,1.33,104.1
"2010-02-12 00:10:30",1673580,3.473,142.7,6.639,1.198,3.713,100.5031,0.583,1.767,34.31,0,109.6,13.56,1.34,104.7
"2010-02-12 00:11:00",1673581,3.406,146.8,6.322,1.281,4.262,100.5203,0.627,1.86,34.4,0,109.6,13.56,1.38,108.8
"2010-02-12 00:11:30",1673582,4.41,154.2,3.923,0.797,6.008,100.5362,0.668,1.948,34.39,0,109.6,13.56,1.42,116.2
"2010-02-12 00:12:00",1673583,4.075,152.6,6.088,1.102,4.973,100.537,0.67,1.839,34.17,0,109.6,13.56,1.42,114.6
"2010-02-12 00:12:30",1673584,2.533,147.1,2.731,0.43,1.577,100.5353,0.665,1.753,34.01,0,109.6,13.59,1.42,109.1
"2010-02-12 00:13:00",1673585,2.492,147.6,1.127,0.036,1.193,100.5356,0.666,1.713,33.74,0,109.6,13.59,1.42,109.6
"2010-02-12 00:13:30",1673586,3.737,156.6,6.673,1.227,4.138,100.5464,0.694,1.864,33.77,0,109.6,13.56,1.45,118.6
"2010-02-12 00:14:00",1673587,4.347,157.9,6.084,1.018,5.639,100.5543,0.714,1.926,33.85,0,109.6,13.56,1.47,119.9
"2010-02-12 00:14:30",1673588,4.539,158.7,3.395,0.858,6.395,100.5687,0.751,2.022,34.03,0,109.6,13.56,1.51,120.7
"2010-02-12 00:15:00",1673589,4.14,156.4,4.711,1.09,5.387,100.5701,0.754,1.962,34.05,0,109.6,13.56,1.51,118.4
"2010-02-12 00:15:30",1673590,2.559,149.5,4.31,0.765,2.032,100.5704,0.755,1.781,33.9,0,109.6,13.56,1.51,111.5
"2010-02-12 00:16:00",1673591,2.713,150.4,4.488,0.814,1.863,100.5718,0.759,1.801,33.85,0,109.6,13.56,1.51,112.4
"2010-02-12 00:16:30",1673592,3.307,153.9,5.22,1.142,2.934,100.5735,0.763,1.783,33.75,0,109.6,13.56,1.52,115.9
"2010-02-12 00:17:00",1673593,4.103,156.6,6.038,1.211,5.099,100.5735,0.763,1.996,33.84,0,109.6,13.56,1.52,118.6
"2010-02-12 00:17:30",1673594,4.211,158.6,5.85,1.078,6.101,100.5747,0.766,2.068,33.8,0,109.6,13.56,1.52,120.6
"2010-02-12 00:18:00",1673595,4.659,159.5,5.425,0.752,6.034,100.5752,0.767,2.047,33.69,0,109.6,13.56,1.52,121.5
"2010-02-12 00:18:30",1673596,3.771,153.6,6.628,1.247,3.862,100.5772,0.772,1.972,33.56,0,109.6,13.56,1.53,115.6
"2010-02-12 00:19:00",1673597,2.816,146.4,2.418,0.637,1.339,100.5772,0.772,1.793,33.36,0,109.6,13.56,1.53,108.4
"2010-02-12 00:19:30",1673598,3.064,147.7,5.631,0.821,2.624,100.5775,0.773,1.95,33.5,0,109.6,13.56,1.53,109.7
"2010-02-12 00:20:00",1673599,4.286,157.6,6.515,1.139,5.108,100.5772,0.772,1.982,33.45,0,109.6,13.56,1.53,119.6
"2010-02-12 00:20:30",1673600,4.325,152.6,5.438,1.202,5.31,100.5772,0.772,2.079,33.55,0,109.6,13.56,1.53,114.6
"2010-02-12 00:21:00",1673601,5.043,154.6,4.054,0.668,6.41,100.5772,0.772,2.14,33.52,0,109.6,13.56,1.53,116.6
"2010-02-12 00:21:30",1673602,3.963,151.6,6.564,1.163,3.854,100.577,0.772,1.892,33.27,0,109.6,13.56,1.53,113.6
"2010-02-12 00:22:00",1673603,2.894,145.3,1.811,0.051,1.62,100.5772,0.772,1.856,33.23,0,109.6,13.58,1.53,107.3
"2010-02-12 00:22:30",1673604,3.977,151.1,5.923,1.233,3.924,100.5772,0.772,1.894,33.21,0,109.6,13.56,1.53,113.1
"2010-02-12 00:23:00",1673605,3.556,150.6,6.017,1.121,3.962,100.5772,0.772,2.018,33.31,0,109.6,13.56,1.53,112.6
"2010-02-12 00:23:30",1673606,5.101,159.2,4.106,0.649,6.599,100.5772,0.772,2.133,33.39,0,109.6,13.56,1.53,121.2
"2010-02-12 00:24:00",1673607,5.053,157.2,3.099,0.767,6.387,100.5772,0.772,2.11,33.34,0,109.6,13.56,1.53,119.2
"2010-02-12 00:24:30",1673608,3.909,153.7,5.187,1.162,3.707,100.5772,0.772,1.981,33.24,0,109.6,13.55,1.53,115.7
"2010-02-12 00:25:00",1673609,3.381,154.9,6.131,1.059,3.035,100.5772,0.772,1.944,33.11,0,109.6,13.55,1.53,116.9
"2010-02-12 00:25:30",1673610,3.537,155.6,5.545,1.025,2.534,100.5772,0.772,1.821,32.97,0,109.6,13.56,1.53,117.6
"2010-02-12 00:26:00",1673611,4.672,164.6,5.768,1.172,5.823,100.5772,0.772,2.047,33.14,0,109.6,13.56,1.53,126.6
"2010-02-12 00:26:30",1673612,4.962,165.9,4.984,0.803,6.444,100.575,0.767,2.063,33.14,0,109.6,13.56,1.52,127.9
"2010-02-12 00:27:00",1673613,5.17,168.9,3.648,0.658,6.578,100.5654,0.742,2.094,33.16,0,109.6,13.56,1.50,130.9
"2010-02-12 00:27:30",1673614,3.581,162.1,6.66,1.141,3.503,100.5589,0.725,1.969,33.03,0,109.6,13.56,1.48,124.1
"2010-02-12 00:28:00",1673615,3.358,161.9,6.154,1.085,2.377,100.5529,0.71,1.777,32.81,0,109.6,13.56,1.46,123.9
"2010-02-12 00:28:30",1673616,3.301,165.9,5.761,1.065,2.963,100.545,0.69,1.922,32.95,0,109.6,13.57,1.44,127.9
"2010-02-12 00:29:00",1673617,3.912,170.3,6.79,1.271,3.461,100.5433,0.686,1.767,32.76,0,109.6,13.57,1.44,132.3
"2010-02-12 00:29:30",1673618,4.283,176,5.62,1.07,5.693,100.5433,0.686,2.014,32.95,0,109.6,13.57,1.44,138.0
"2010-02-12 00:30:00",1673619,4.537,174.4,4.538,0.993,6.204,100.5433,0.686,2.036,32.97,0,109.6,13.57,1.44,136.4
"2010-02-12 00:30:30",1673620,4.436,175.3,5.53,1.038,6.004,100.5433,0.686,1.992,33.08,0,109.6,13.57,1.44,137.3
"2010-02-12 00:31:00",1673621,2.637,165.7,1.381,0.435,1.834,100.5433,0.686,1.818,32.99,0,109.6,13.57,1.44,127.7
"2010-02-12 00:31:30",1673622,3.701,171.4,6.863,1.206,3.624,100.5424,0.684,1.825,33.18,0,109.6,13.57,1.44,133.4
"2010-02-12 00:32:00",1673623,3.035,168.4,6.046,0.983,3.031,100.534,0.662,1.9,33.27,0,109.6,13.57,1.42,130.4
"2010-02-12 00:32:30",1673624,3.962,170.5,6.582,1.229,4.879,100.5195,0.625,1.952,33.39,0,109.6,13.57,1.38,132.5
"2010-02-12 00:33:00",1673625,4.403,172.2,4.904,1.016,6.124,100.5116,0.605,1.977,33.48,0,109.6,13.57,1.36,134.2
"2010-02-12 00:33:30",1673626,3.983,169.4,6.609,1.177,5.32,100.5096,0.6,1.942,33.56,0,109.6,13.57,1.35,131.4
"2010-02-12 00:34:00",1673627,3.942,167.8,5.738,1.157,4.715,100.5099,0.601,1.846,33.53,0,109.6,13.57,1.35,129.8
"2010-02-12 00:34:30",1673628,3.493,167.9,5.5,1.215,3.666,100.5102,0.601,1.856,33.58,0,109.6,13.57,1.36,129.9
"2010-02-12 00:35:00",1673629,2.875,162.5,5.217,0.949,2.465,100.5108,0.603,1.809,33.55,0,109.6,13.57,1.36,124.5
"2010-02-12 00:35:30",1673630,3.581,166,6.622,1.235,3.774,100.5113,0.604,1.824,33.53,0,109.6,13.57,1.36,128.0
"2010-02-12 00:36:00",1673631,4.436,169.9,5.093,0.997,5.629,100.513,0.609,1.873,33.55,0,109.6,13.57,1.36,131.9
"2010-02-12 00:36:30",1673632,3.673,165.4,6.745,1.253,4.376,100.517,0.619,1.892,33.57,0,109.6,13.57,1.37,127.4
"2010-02-12 00:37:00",1673633,3.363,163,5.633,1.135,3.342,100.5193,0.625,1.738,33.32,0,109.6,13.57,1.38,125.0
"2010-02-12 00:37:30",1673634,3.461,162.9,6.244,1.229,3.402,100.5153,0.614,1.696,33.17,0,109.6,13.57,1.37,124.9
"2010-02-12 00:38:00",1673635,3.553,166.1,6.338,1.23,3.889,100.5086,0.597,1.862,33.15,0,109.6,13.57,1.35,128.1
"2010-02-12 00:38:30",1673636,2.776,160.4,5.187,0.865,2.755,100.497,0.568,1.813,32.94,0,109.6,13.57,1.32,122.4
"2010-02-12 00:39:00",1673637,3.425,164.3,6.411,1.268,4.015,100.4984,0.571,1.774,32.8,0,109.6,13.57,1.33,126.3
"2010-02-12 00:39:30",1673638,3.597,165.2,6.584,1.215,4.274,100.499,0.573,1.826,32.81,0,109.6,13.57,1.33,127.2
"2010-02-12 00:40:00",1673639,3.416,162.5,6.805,1.243,3.741,100.4995,0.574,1.719,32.75,0,109.6,13.57,1.33,124.5
"2010-02-12 00:40:30",1673640,2.982,161.4,5.608,1.193,3.185,100.5013,0.579,1.724,32.85,0,109.6,13.57,1.33,123.4
"2010-02-12 00:41:00",1673641,3.18,164.3,6.46,1.204,3.94,100.5015,0.579,1.781,32.85,0,109.6,13.57,1.33,126.3
"2010-02-12 00:41:30",1673642,3.17,163.7,6.189,1.211,3.537,100.5047,0.587,1.682,32.8,0,109.6,13.57,1.34,125.7
"2010-02-12 00:42:00",1673643,3.882,166.4,5.278,1.212,4.749,100.5061,0.591,1.766,32.92,0,109.6,13.57,1.35,128.4
"2010-02-12 00:42:30",1673644,2.877,158.7,4.833,1.034,2.848,100.5075,0.595,1.7,32.88,0,109.6,13.57,1.35,120.7
"2010-02-12 00:43:00",1673645,3.694,163.5,6.316,1.212,4.189,100.5019,0.58,1.704,32.91,0,109.6,13.58,1.33,125.5
"2010-02-12 00:43:30",1673646,3.019,161.8,5.708,1.14,3.409,100.4956,0.564,1.738,32.96,0,109.6,13.58,1.32,123.8
"2010-02-12 00:44:00",1673647,3.319,167,6.631,1.22,4.719,100.4863,0.54,1.814,33.06,0,109.6,13.58,1.29,129.0
"2010-02-12 00:44:30",1673648,3.937,169.9,5.756,1.122,4.921,100.4758,0.514,1.767,33.01,0,109.6,13.58,1.27,131.9
"2010-02-12 00:45:00",1673649,2.905,163.7,5.653,1.099,3.16,100.4755,0.513,1.721,33.01,0,109.6,13.58,1.27,125.7
"2010-02-12 00:45:30",1673650,3.149,165.4,6.812,1.167,3.451,100.4755,0.513,1.663,32.96,0,109.6,13.58,1.27,127.4
"2010-02-12 00:46:00",1673651,3.371,168.4,6.555,1.23,3.647,100.4755,0.513,1.676,32.94,0,109.6,13.59,1.27,130.4
"2010-02-12 00:46:30",1673652,2.855,164.7,5.3,1.001,3.285,100.4755,0.513,1.739,33.03,0,109.6,13.59,1.27,126.7
"2010-02-12 00:47:00",1673653,3.837,168.4,5.701,1.217,5.047,100.4755,0.513,1.776,33.06,0,109.6,13.59,1.27,130.4
"2010-02-12 00:47:30",1673654,3.948,169.4,6.356,1.137,4.941,100.4755,0.513,1.749,32.98,0,109.6,13.59,1.27,131.4
"2010-02-12 00:48:00",1673655,3.15,167,6.554,1.141,3.697,100.4755,0.513,1.723,32.92,0,109.6,13.59,1.27,129.0
"2010-02-12 00:48:30",1673656,3.131,165.3,6.369,1.148,3.421,100.475,0.512,1.633,32.83,0,109.6,13.59,1.27,127.3
"2010-02-12 00:49:00",1673657,2.294,160.8,1.2,0.031,1.64,100.4699,0.499,1.6,32.79,0,109.6,13.62,1.25,122.8
"2010-02-12 00:49:30",1673658,3.548,169.8,7.152,1.238,4.017,100.4648,0.486,1.693,32.87,0,109.6,13.59,1.24,131.8
"2010-02-12 00:50:00",1673659,4.334,173.1,5.777,1.009,5.564,100.4574,0.467,1.697,32.95,0,109.6,13.59,1.22,135.1
"2010-02-12 00:50:30",1673660,4.264,171.6,6.21,1.037,5.654,100.4475,0.442,1.748,33.17,0,109.6,13.59,1.20,133.6
"2010-02-12 00:51:00",1673661,3.88,168.3,6.499,1.175,4.22,100.4427,0.429,1.657,33.44,0,109.6,13.59,1.18,130.3
"2010-02-12 00:51:30",1673662,3.422,168.2,6.482,1.114,3.381,100.4419,0.427,1.64,33.57,0,109.6,13.59,1.18,130.2
"2010-02-12 00:52:00",1673663,3.122,159.9,4.553,0.928,2.142,100.4416,0.426,1.504,33.45,0,109.6,13.59,1.18,121.9
"2010-02-12 00:52:30",1673664,2.92,158.8,2.51,0.656,1.775,100.4416,0.426,1.548,33.57,0,109.6,13.59,1.18,120.8
"2010-02-12 00:53:00",1673665,4.745,172.3,4.219,0.92,6.592,100.4416,0.426,1.816,33.78,0,109.6,13.59,1.18,134.3
"2010-02-12 00:53:30",1673666,4.582,170.7,6.716,1.048,5.763,100.4416,0.426,1.71,33.64,0,109.6,13.6,1.18,132.7
"2010-02-12 00:54:00",1673667,4.644,171.7,5.386,1.009,5.497,100.4416,0.426,1.741,33.82,0,109.6,13.59,1.18,133.7
"2010-02-12 00:54:30",1673668,3.357,162.5,4.864,0.908,2.327,100.4416,0.426,1.557,33.97,0,109.6,13.59,1.18,124.5
"2010-02-12 00:55:00",1673669,3.755,164.4,6.935,1.104,2.987,100.4416,0.426,1.515,34.01,0,109.6,13.59,1.18,126.4
"2010-02-12 00:55:30",1673670,3.329,158.6,3.984,0.841,2.2,100.4416,0.426,1.507,34.23,0,109.6,13.59,1.18,120.6
"2010-02-12 00:56:00",1673671,4.599,167,6.072,1.175,5.683,100.4413,0.426,1.745,34.64,0,109.6,13.59,1.18,129.0
"2010-02-12 00:56:30",1673672,5.074,169.7,4.845,0.854,6.315,100.4413,0.426,1.759,34.65,0,109.6,13.59,1.18,131.7
"2010-02-12 00:57:00",1673673,5.166,169.5,3.328,0.76,6.485,100.4393,0.421,1.772,34.67,0,109.6,13.59,1.17,131.5
"2010-02-12 00:57:30",1673674,3.843,161.9,5.846,1.164,3.529,100.4317,0.401,1.59,34.6,0,109.6,13.59,1.15,123.9
"2010-02-12 00:58:00",1673675,3.331,159,2.837,0.719,1.635,100.4249,0.384,1.455,34.56,0,109.6,13.59,1.14,121.0
"2010-02-12 00:58:30",1673676,3.971,164.2,6.246,1.141,3.456,100.4133,0.354,1.604,34.77,0,109.6,13.59,1.11,126.2
"2010-02-12 00:59:00",1673677,5.342,171.1,5.055,0.878,6.032,100.4104,0.347,1.66,34.94,0,109.6,13.59,1.10,133.1
"2010-02-12 00:59:30",1673678,5.533,173.8,4.015,0.663,6.981,100.4082,0.341,1.757,35.19,0,109.5,13.6,1.09,135.8
"2010-02-12 01:00:00",1673679,5.191,173.4,4.431,0.995,6.176,100.4087,0.343,1.705,35.15,0,109.6,13.6,1.10,135.4
"2010-02-12 01:00:30",1673680,4.217,169.2,6.328,1.162,3.381,100.4079,0.34,1.51,34.89,0,109.6,13.6,1.09,131.2
"2010-02-12 01:01:00",1673681,3.805,167.2,5.465,0.962,2.62,100.4076,0.34,1.56,34.9,0,109.6,13.6,1.09,129.2
"2010-02-12 01:01:30",1673682,4.344,167.3,6.768,1.221,3.754,100.4076,0.34,1.495,34.8,0,109.6,13.6,1.09,129.3
"2010-02-12 01:02:00",1673683,4.985,172.9,5.195,1.151,5.498,100.4076,0.34,1.622,35.02,0,109.6,13.6,1.09,134.9
"2010-02-12 01:02:30",1673684,5.393,175.3,4.381,1.008,6.347,100.4076,0.34,1.706,35.01,0,109.6,13.6,1.09,137.3
"2010-02-12 01:03:00",1673685,5.663,177.5,4.23,0.666,7.063,100.4076,0.34,1.732,34.98,0,109.6,13.6,1.09,139.5
"2010-02-12 01:03:30",1673686,4.903,176,5.973,1.21,5.409,100.4076,0.34,1.674,34.96,0,109.6,13.6,1.09,138.0
"2010-02-12 01:04:00",1673687,4.033,171.3,5.846,1.185,3.107,100.4079,0.34,1.451,34.74,0,109.6,13.6,1.09,133.3
"2010-02-12 01:04:30",1673688,3.162,168.9,1.029,0.054,1.678,100.4087,0.343,1.424,34.52,0,109.6,13.63,1.10,130.9
"2010-02-12 01:05:00",1673689,4.482,174.5,6.154,1.28,4.556,100.409,0.343,1.582,34.51,0,109.6,13.6,1.10,136.5
"2010-02-12 01:05:30",1673690,5.271,177.4,5.133,0.942,6.669,100.4102,0.346,1.698,34.78,0,109.6,13.6,1.10,139.4
"2010-02-12 01:06:00",1673691,5.304,179.3,4.096,0.79,7.273,100.4104,0.347,1.718,35.11,0,109.6,13.6,1.10,141.3
"2010-02-12 01:06:30",1673692,5.468,178.6,3.339,0.485,6.563,100.4124,0.352,1.727,35.27,0,109.6,13.6,1.11,140.6
"2010-02-12 01:07:00",1673693,3.52,167.3,4.877,0.88,2.672,100.4127,0.353,1.545,35.02,0,109.6,13.6,1.11,129.3
"2010-02-12 01:07:30",1673694,3.163,166.3,2.296,0.431,1.64,100.4147,0.358,1.438,34.74,0,109.6,13.6,1.11,128.3
"2010-02-12 01:08:00",1673695,3.426,167.9,3.308,0.77,1.946,100.4173,0.364,1.438,34.95,0,109.6,13.6,1.12,129.9
"2010-02-12 01:08:30",1673696,4.749,174.9,6.261,1.167,5.12,100.4181,0.367,1.689,35.28,0,109.6,13.6,1.12,136.9
"2010-02-12 01:09:00",1673697,5.292,176.2,4.649,0.777,6.943,100.4221,0.377,1.747,35.31,0,109.6,13.6,1.13,138.2
"2010-02-12 01:09:30",1673698,5.35,177.4,3.406,0.651,6.708,100.4258,0.386,1.756,35.27,0,109.6,13.6,1.14,139.4
"2010-02-12 01:10:00",1673699,4.515,172.6,5.736,1.153,4.551,100.4303,0.398,1.585,35.13,0,109.6,13.6,1.15,134.6
"2010-02-12 01:10:30",1673700,3.113,166.9,0.683,0.033,1.661,100.4365,0.413,1.436,34.95,0,109.6,13.62,1.17,128.9
"2010-02-12 01:11:00",1673701,3.655,169.9,4.94,0.997,2.453,100.4411,0.425,1.441,35.01,0,109.6,13.6,1.18,131.9
"2010-02-12 01:11:30",1673702,4.261,174.1,6.499,1.226,4.2,100.4499,0.447,1.683,35.3,0,109.6,13.6,1.20,136.1
"2010-02-12 01:12:00",1673703,5.312,178.7,4.56,0.866,6.501,100.4533,0.456,1.689,35.28,0,109.6,13.6,1.21,140.7
"2010-02-12 01:12:30",1673704,5.345,178.3,4.921,0.865,6.34,100.4575,0.467,1.725,35.17,0,109.6,13.6,1.22,140.3
"2010-02-12 01:13:00",1673705,5.19,178.2,5.484,1.069,5.772,100.4595,0.472,1.697,34.94,0,109.6,13.6,1.23,140.2
"2010-02-12 01:13:30",1673706,3.816,170.9,3.793,0.824,2.432,100.4601,0.474,1.507,34.7,0,109.6,13.6,1.23,132.9
"2010-02-12 01:14:00",1673707,4.604,175.5,6.478,1.226,3.809,100.4643,0.484,1.536,34.67,0,109.6,13.6,1.24,137.5
"2010-02-12 01:14:30",1673708,4.695,175.7,6.361,1.24,4.702,100.464,0.484,1.692,34.86,0,109.6,13.6,1.24,137.7
"2010-02-12 01:15:00",1673709,4.889,176.2,5.99,1.217,4.553,100.464,0.484,1.604,34.82,0,109.6,13.6,1.24,138.2
"2010-02-12 01:15:30",1673710,5.422,178.2,5.497,1.064,5.742,100.4655,0.487,1.742,35.18,0,109.5,13.6,1.24,140.2
"2010-02-12 01:16:00",1673711,5.572,178.8,5.888,1.091,5.587,100.4655,0.487,1.631,35.24,0,109.6,13.6,1.24,140.8
"2010-02-12 01:16:30",1673712,4.199,172.6,5.609,0.878,3.102,100.466,0.489,1.626,35.26,0,109.6,13.6,1.24,134.6
"2010-02-12 01:17:00",1673713,5.392,179.3,6.705,1.249,4.8,100.4672,0.492,1.707,35.32,0,109.6,13.6,1.25,141.3
"2010-02-12 01:17:30",1673714,5.094,175.6,7.389,1.213,4.373,100.4663,0.489,1.658,35.18,0,109.6,13.6,1.24,137.6
"2010-02-12 01:18:00",1673715,5.117,176.2,6.757,1.225,4.175,100.4669,0.491,1.687,35.1,0,109.6,13.6,1.24,138.2
"2010-02-12 01:18:30",1673716,5.051,176.7,6.158,1.205,4.333,100.4672,0.492,1.641,35.15,0,109.6,13.6,1.25,138.7
"2010-02-12 01:19:00",1673717,5.423,177.8,5.886,1.198,5.398,100.4674,0.492,1.734,35.23,0,109.6,13.61,1.25,139.8
"2010-02-12 01:19:30",1673718,5.851,180.2,5.823,1.088,5.486,100.4672,0.492,1.669,35.12,0,109.6,13.6,1.25,142.2
"2010-02-12 01:20:00",1673719,5.781,179.3,6.078,1.141,4.951,100.468,0.494,1.672,35.14,0,109.6,13.6,1.25,141.3
"2010-02-12 01:20:30",1673720,4.857,175.8,5.769,1.125,3.569,100.4677,0.493,1.632,35.06,0,109.6,13.6,1.25,137.8
"2010-02-12 01:21:00",1673721,5.251,177.1,6.147,1.173,4.063,100.4723,0.505,1.614,35.07,0,109.5,13.6,1.26,139.1
"2010-02-12 01:21:30",1673722,5.346,177.6,5.815,1.064,4.351,100.4782,0.52,1.685,35.13,0,109.6,13.61,1.27,139.6
"2010-02-12 01:22:00",1673723,5.9,180.4,6.055,1.186,5.685,100.4822,0.53,1.77,35.12,0,109.5,13.61,1.28,142.4
"2010-02-12 01:22:30",1673724,6.104,184.1,6.441,1.13,5.458,100.4876,0.544,1.719,35.09,0,109.6,13.61,1.30,146.1
"2010-02-12 01:23:00",1673725,6.328,186.7,5.199,1.044,5.254,100.4935,0.559,1.753,35.04,0,109.6,13.61,1.31,148.7
"2010-02-12 01:23:30",1673726,6.314,186,5.795,1.094,4.713,100.4969,0.567,1.679,34.94,0,109.6,13.61,1.32,148.0
"2010-02-12 01:24:00",1673727,6.055,184.3,6.474,1.119,4.574,100.5014,0.579,1.687,34.92,0,109.6,13.6,1.33,146.3
"2010-02-12 01:24:30",1673728,5.012,177.6,6.987,1.198,3.495,100.5023,0.581,1.685,34.72,0,109.5,13.61,1.34,139.6
"2010-02-12 01:25:00",1673729,5.74,182.3,6.496,1.167,4.707,100.5028,0.583,1.7,34.68,0,109.6,13.61,1.34,144.3
"2010-02-12 01:25:30",1673730,6.027,184.8,5.001,1.185,5.021,100.5051,0.588,1.798,34.69,0,109.6,13.61,1.34,146.8
"2010-02-12 01:26:00",1673731,5.92,183.8,5.761,1.166,5.083,100.5026,0.582,1.824,34.54,0,109.6,13.61,1.34,145.8
"2010-02-12 01:26:30",1673732,6.287,184.8,5.588,1.027,5.344,100.5028,0.583,1.789,34.63,0,109.6,13.61,1.34,146.8
"2010-02-12 01:27:00",1673733,5.016,179.2,4.695,0.955,2.319,100.5037,0.585,1.643,34.53,0,109.6,13.6,1.34,141.2
"2010-02-12 01:27:30",1673734,5.15,179.6,5.991,1.132,3.379,100.5043,0.586,1.61,34.2,0,109.6,13.6,1.34,141.6
"2010-02-12 01:28:00",1673735,5.95,183.8,5.995,1.18,4.618,100.5046,0.587,1.739,34.3,0,109.6,13.6,1.34,145.8
"2010-02-12 01:28:30",1673736,6.094,184.3,6.494,1.175,5.552,100.5034,0.584,1.821,34.25,0,109.6,13.6,1.34,146.3
"2010-02-12 01:29:00",1673737,6.721,190.2,3.349,0.662,6.259,100.5028,0.583,1.853,34.35,0,109.6,13.6,1.34,152.2
"2010-02-12 01:29:30",1673738,6.322,187.2,5.57,1.04,5.23,100.504,0.586,1.828,34.45,0,109.6,13.6,1.34,149.2
"2010-02-12 01:30:00",1673739,5.601,182.9,5.869,1.123,4.035,100.5057,0.59,1.711,34.14,0,109.6,13.6,1.34,144.9
"2010-02-12 01:30:30",1673740,4.361,178.2,3.187,0.247,1.605,100.5068,0.593,1.633,33.94,0,109.6,13.6,1.35,140.2
"2010-02-12 01:31:00",1673741,5.692,187,6.142,1.197,4.519,100.5045,0.587,1.835,34.13,0,109.6,13.6,1.34,149.0
"2010-02-12 01:31:30",1673742,6.322,189,5.733,1.07,5.964,100.5074,0.594,1.867,34.12,0,109.5,13.6,1.35,151.0
"2010-02-12 01:32:00",1673743,6.492,193.3,4.102,0.751,6.55,100.5091,0.599,1.879,34.23,0,109.6,13.61,1.35,155.3
"2010-02-12 01:32:30",1673744,6.304,192.5,5.032,0.894,5.925,100.5108,0.603,1.855,34.39,0,109.6,13.61,1.36,154.5
"2010-02-12 01:33:00",1673745,5.113,189.3,5.367,1.137,3.501,100.5102,0.601,1.709,34.29,0,109.6,13.61,1.36,151.3
"2010-02-12 01:33:30",1673746,4.973,189.3,5.174,1.104,2.465,100.5139,0.611,1.658,34.38,0,109.6,13.61,1.36,151.3
"2010-02-12 01:34:00",1673747,5.972,197,5.969,1.128,5.142,100.5119,0.606,1.81,34.58,0,109.6,13.61,1.36,159.0
"2010-02-12 01:34:30",1673748,5.847,197.9,5.785,1.124,5.417,100.5156,0.615,1.87,34.66,0,109.6,13.61,1.37,159.9
"2010-02-12 01:35:00",1673749,6.247,198.9,4.845,0.941,6.43,100.5162,0.617,1.867,34.65,0,109.6,13.61,1.37,160.9
"2010-02-12 01:35:30",1673750,5.975,199.6,5.388,1.086,6.034,100.517,0.619,1.889,34.61,0,109.6,13.61,1.37,161.6
"2010-02-12 01:36:00",1673751,5.801,197.8,5.883,1.174,5.174,100.5201,0.627,1.81,34.5,0,109.6,13.61,1.38,159.8
"2010-02-12 01:36:30",1673752,5.518,195.4,6.027,1.222,3.58,100.5199,0.626,1.71,34.39,0,109.6,13.61,1.38,157.4
"2010-02-12 01:37:00",1673753,4.735,193.9,5.356,0.921,2.914,100.5196,0.625,1.801,34.5,0,109.6,13.61,1.38,155.9
"2010-02-12 01:37:30",1673754,5.432,196.3,6.31,1.236,4.293,100.5236,0.635,1.784,34.41,0,109.6,13.61,1.39,158.3
"2010-02-12 01:38:00",1673755,6.442,198.7,4.728,0.86,6.718,100.5201,0.627,1.86,34.36,0,109.6,13.61,1.38,160.7
"2010-02-12 01:38:30",1673756,6.227,195.5,5.847,1.071,6.098,100.5224,0.632,1.889,34.15,0,109.6,13.61,1.39,157.5
"2010-02-12 01:39:00",1673757,6.348,193.9,6.491,1.03,5.714,100.523,0.634,1.867,33.82,0,109.6,13.61,1.39,155.9
"2010-02-12 01:39:30",1673758,5.147,189.4,5.289,1.212,3.589,100.5253,0.64,1.821,33.45,0,109.6,13.61,1.39,151.4
"2010-02-12 01:40:00",1673759,4.948,188,4.935,1.029,2.963,100.5255,0.64,1.79,33.3,0,109.6,13.61,1.39,150.0
"2010-02-12 01:40:30",1673760,5.512,187.9,6.289,1.251,3.563,100.5241,0.637,1.788,33.12,0,109.6,13.61,1.39,149.9
"2010-02-12 01:41:00",1673761,6.095,191.6,5.634,1.093,5.552,100.5289,0.649,1.928,33.13,0,109.6,13.61,1.40,153.6
"2010-02-12 01:41:30",1673762,6.104,189,6.208,1.091,5.715,100.5349,0.664,1.87,33.01,0,109.6,13.61,1.42,151.0
"2010-02-12 01:42:00",1673763,6.084,191.3,4.718,1.035,5.739,100.538,0.672,1.908,33,0,109.6,13.61,1.43,153.3
"2010-02-12 01:42:30",1673764,5.376,187.2,6.536,1.226,3.905,100.5422,0.683,1.792,32.77,0,109.6,13.61,1.44,149.2
"2010-02-12 01:43:00",1673765,5.904,191.3,7.131,1.179,4.383,100.5408,0.679,1.824,32.82,0,109.5,13.6,1.43,153.3
"2010-02-12 01:43:30",1673766,4.749,185.4,3.962,0.948,2.594,100.5414,0.681,1.781,32.95,0,109.5,13.6,1.44,147.4
"2010-02-12 01:44:00",1673767,6.093,191.7,5.879,1.16,5.411,100.5417,0.682,1.834,32.98,0,109.6,13.61,1.44,153.7
"2010-02-12 01:44:30",1673768,6.09,186.5,6.244,1.102,5.424,100.5411,0.68,1.887,32.87,0,109.6,13.6,1.43,148.5
"2010-02-12 01:45:00",1673769,6.433,190.2,4.394,1.016,6.097,100.5402,0.678,1.924,32.72,0,109.6,13.6,1.43,152.2
"2010-02-12 01:45:30",1673770,6.246,186.3,6.798,1.086,5.079,100.5428,0.685,1.866,32.61,0,109.5,13.6,1.44,148.3
"2010-02-12 01:46:00",1673771,5.885,188.6,5.782,1.167,4.173,100.5431,0.685,1.801,32.75,0,109.6,13.6,1.44,150.6
"2010-02-12 01:46:30",1673772,4.491,182.5,4.102,0.845,2.683,100.5428,0.685,1.798,33,0,109.6,13.6,1.44,144.5
"2010-02-12 01:47:00",1673773,5.427,188.1,6.648,1.282,4.826,100.542,0.682,1.891,33.08,0,109.6,13.6,1.44,150.1
"2010-02-12 01:47:30",1673774,5.905,191.3,5.766,1.062,5.532,100.542,0.682,1.937,33.05,0,109.6,13.6,1.44,153.3